Weather in Berezovka

Russia / Omsk Oblast     54°47′43″N   73°04′45″E
temp.,
°C
wind,
m/s
gust,
m/s
humid.,
%
clouds,
%
prec.,
mm/h
press.,
hPa
HPBL,
m
13 april, tue
tue1300:00+2nnw310100100 0.3 1034215
03:00+2nnw5999100 0.0 1035243
06:00+1n5694100 0.1 1037258
09:00+1nw2510039 0.0 1039154
12:00+3nw3710087 0.0 1040174
15:00+3wnw459648 0.0 1040224
18:00+3wnw4696100 0.0 1040319
21:00+1wsw35955 0.0 1040107
14 april, wed
wed1400:000wsw489716 0.0 1039130
03:00−1wsw410955 0.0 1037175
06:000wsw4109519 0.0 1037205
09:00+1wsw61394100 0.0 1036321
12:00+5wsw7137955 0.0 1033431
15:00+7w81275100 0.0 1031452
18:00+6w612825 0.0 1030406
21:00+3wsw49915 0.0 1029150
15 april, thu
thu1500:00+3w479318 0.0 102899
03:00+3wsw359570 0.0 102872
06:00+4wsw4795100 0.0 1027115
09:00+6wsw48915 0.0 1026188
12:00+12w57795 0.0 1025417
15:00+15w67685 0.0 1023976
18:00+15w57695 0.0 1022948
21:00+10wsw49915 0.0 1021170
16 april, fri
fri1600:00
03:00+8wsw489150 0.0 1018124
06:00+7wsw48895 0.0 1017135
09:00+10wsw5975100 0.0 1016278
12:00+14wsw575892 0.0 1014642
15:00+17w56451 0.0 10131191
18:00+16wnw34458 0.0 10111460
21:00+8nne698488 0.0 1013398
17 april, sat
sat1700:00+7ne699035 0.0 1010339
03:00+4ne6987100 0.2 1012604
06:00+1ne81296100 0.6 1013603
09:000ne71088100 1.0 1015720
12:00+1ne6771100 1.1 1016984
15:00+1ne5569100 0.1 10161121
18:00+1ene4470100 0.1 1016719
21:000e3480100 0.0 1016436